Havre St Pierre, Quebec

2:12 AM EST on December 08, 2016 (GMT -0500)
Havre Saint-Pierre

Weather History for CYGV - September, 2013

Change the Weather History Date:

Saturday, September 7, 2013

  Actual Average Record
Temperature  
Mean Temperature 54 °F -  
Max Temperature 57 °F 54 °F 73 °F (2016)
Min Temperature 50 °F 39 °F 33 °F (2011)
Degree Days  
Heating Degree Days 12    
Growing Degree Days 4 (Base 50)    
Moisture  
Dew Point 51 °F    
Average Humidity 95    
Maximum Humidity 100    
Minimum Humidity 82    
Precipitation  
Precipitation 0.00 in - - ()
Sea Level Pressure  
Sea Level Pressure 29.62 in    
Wind  
Wind Speed 7 mph ()    
Max Wind Speed 16 mph    
Max Gust Speed 24 mph    
Visibility 6.2 miles    
Events Fog , Rain    
Averages and records for this station are not official NWS values.
T = Trace of Precipitation, MM = Missing Value Source: Averaged Metar Reports

Daily Weather History Graph

Daily Weather History Graph

Search for Another Location

Airport or City:

Trip Planner

Search our weather history database for the weather conditions in past years. The results will help you decide how hot, cold, wet, or windy it might be!

Date:

Astronomy

Sep. 07, 2013 Rise Set
Actual Time 5:38 AM EDT 6:45 PM EDT
Civil Twilight 5:05 AM EDT 7:18 PM EDT
Nautical Twilight 4:24 AM EDT 7:58 PM EDT
Astronomical Twilight 3:41 AM EDT 8:41 PM EDT
Moon 8:07 AM EDT (9/7) 7:19 PM EDT (9/7)
Length of Visible Light 14h 13m
Length of Day
13h 06m
Waxing Crescent, 5% of the Moon is Illuminated
Sep 7
Waxing Crescent
Sep 12
First Quarter
Sep 19
Full
Sep 26
Last Quarter
Oct 4
New

Hourly Weather History & Observations

Time (EDT) Temp. Dew Point Humidity Pressure Visibility Wind Dir Wind Speed Gust Speed Precip Events Conditions
12:00 AM 50.0 °F 46.4 °F 87% 29.71 in 9.0 mi SW 3.5 mph - N/A   Overcast
1:00 AM 50.0 °F 46.4 °F 87% 29.68 in 9.0 mi Calm Calm - N/A   Overcast
1:08 AM 50.0 °F 48.2 °F 94% 29.68 in 9.0 mi South 2.3 mph - N/A Rain Light Rain
2:00 AM 51.8 °F 48.2 °F 88% 29.67 in 9.0 mi SW 10.4 mph - N/A Rain Light Rain
2:09 AM 51.8 °F 50.0 °F 94% 29.67 in 9.0 mi WSW 9.2 mph - N/A   Overcast
2:57 AM 51.8 °F 50.0 °F 94% 29.67 in 9.0 mi WSW 6.9 mph - N/A Rain Light Rain
3:00 AM 51.8 °F 50.0 °F 94% 29.67 in 9.0 mi WSW 8.1 mph - N/A Rain Light Rain
3:08 AM 51.8 °F 50.0 °F 94% 29.67 in 9.0 mi SW 6.9 mph - N/A   Overcast
3:12 AM 51.8 °F 50.0 °F 94% 29.67 in 9.0 mi SW 5.8 mph - N/A Rain Light Rain
3:37 AM 51.8 °F 50.0 °F 94% 29.66 in 9.0 mi SW 4.6 mph - N/A   Overcast
3:40 AM 51.8 °F 50.0 °F 94% 29.66 in 9.0 mi SSW 5.8 mph - N/A Rain Light Rain
4:00 AM 51.8 °F 50.0 °F 94% 29.66 in 9.0 mi WSW 4.6 mph - N/A   Overcast
5:00 AM 51.8 °F 50.0 °F 94% 29.66 in 9.0 mi SSW 4.6 mph - N/A   Overcast
5:09 AM 51.8 °F 50.0 °F 94% 29.66 in 9.0 mi SSW 6.9 mph - N/A Rain Light Rain
5:24 AM 51.8 °F 50.0 °F 94% 29.66 in 9.0 mi SW 5.8 mph - N/A   Overcast
6:00 AM 51.8 °F 48.2 °F 88% 29.66 in 9.0 mi SW 6.9 mph - N/A   Mostly Cloudy
6:03 AM 51.8 °F 48.2 °F 88% 29.66 in 9.0 mi SW 5.8 mph - N/A Rain Light Rain
6:22 AM 51.8 °F 50.0 °F 94% 29.67 in 9.0 mi SW 10.4 mph - N/A   Mostly Cloudy
7:00 AM 53.6 °F 50.0 °F 88% 29.68 in 9.0 mi WSW 8.1 mph - N/A   Overcast
8:00 AM 53.6 °F 50.0 °F 88% 29.66 in 9.0 mi SW 10.4 mph - N/A   Overcast
9:00 AM 53.6 °F 50.0 °F 88% 29.64 in 9.0 mi SW 9.2 mph - N/A   Clear
10:00 AM 55.4 °F 50.0 °F 82% 29.65 in 9.0 mi West 11.5 mph 23.0 mph N/A   Mostly Cloudy
10:04 AM 55.4 °F 50.0 °F 82% 29.66 in 9.0 mi West 16.1 mph - N/A Rain Light Rain
10:15 AM 57.2 °F 51.8 °F 82% 29.65 in 9.0 mi WSW 10.4 mph 19.6 mph N/A   Mostly Cloudy
11:00 AM 57.2 °F 51.8 °F 82% 29.64 in 9.0 mi WSW 13.8 mph 23.0 mph N/A   Mostly Cloudy
12:00 PM 55.4 °F 50.0 °F 82% 29.63 in 9.0 mi WSW 16.1 mph 24.2 mph N/A   Mostly Cloudy
12:56 PM 55.4 °F 51.8 °F 88% 29.62 in 9.0 mi WSW 12.7 mph - N/A Rain Light Rain
1:00 PM 55.4 °F 51.8 °F 88% 29.61 in 9.0 mi WSW 9.2 mph 17.3 mph N/A Rain Light Rain
1:34 PM 53.6 °F 51.8 °F 94% 29.62 in 8.0 mi WSW 10.4 mph 17.3 mph N/A Rain Light Rain
1:55 PM 53.6 °F 51.8 °F 94% 29.62 in 7.0 mi WSW 10.4 mph 18.4 mph N/A Rain Light Rain
2:00 PM 53.6 °F 51.8 °F 94% 29.61 in 7.0 mi WSW 10.4 mph 18.4 mph N/A Rain Light Rain
3:00 PM 51.8 °F 51.8 °F 100% 29.60 in 6.0 mi SW 9.2 mph - N/A Rain Light Rain
3:11 PM 51.8 °F 51.8 °F 100% 29.60 in 5.0 mi SW 9.2 mph - N/A Rain Light Rain
4:00 PM 51.8 °F 51.8 °F 100% 29.60 in 4.0 mi SW 9.2 mph - N/A Rain Light Rain
5:00 PM 51.8 °F 51.8 °F 100% 29.60 in 4.0 mi SW 10.4 mph - N/A Rain Light Rain
5:51 PM 51.8 °F 51.8 °F 100% 29.60 in 5.0 mi SW 5.8 mph - N/A   Overcast
5:56 PM 51.8 °F 51.8 °F 100% 29.60 in 5.0 mi WSW 6.9 mph - N/A Rain Light Rain
5:57 PM 51.8 °F 51.8 °F 100% 29.60 in 6.0 mi SW 6.9 mph - N/A Rain Light Rain
6:00 PM 51.8 °F 51.8 °F 100% 29.60 in 6.0 mi WSW 5.8 mph - N/A Rain Light Rain
6:12 PM 51.8 °F 51.8 °F 100% 29.59 in 6.0 mi SW 5.8 mph - N/A   Overcast
6:15 PM 51.8 °F 51.8 °F 100% 29.60 in 5.0 mi WSW 6.9 mph - N/A   Overcast
6:25 PM 51.8 °F 51.8 °F 100% 29.60 in 3.0 mi SW 5.8 mph - N/A Rain Light Rain
7:00 PM 51.8 °F 51.8 °F 100% 29.60 in 3.0 mi WSW 8.1 mph - N/A Rain Light Rain
7:29 PM 51.8 °F 51.8 °F 100% 29.59 in 3.0 mi WSW 6.9 mph - N/A   Overcast
7:30 PM 51.8 °F 51.8 °F 100% 29.59 in 3.0 mi WSW 6.9 mph - N/A Rain Light Rain
7:41 PM 51.8 °F 51.8 °F 100% 29.59 in 3.0 mi WSW 8.1 mph - N/A   Overcast
8:00 PM 51.8 °F 51.8 °F 100% 29.59 in 4.0 mi WSW 6.9 mph - N/A   Overcast
8:28 PM 51.8 °F 51.8 °F 100% 29.58 in 6.0 mi WSW 5.8 mph - N/A   Overcast
9:00 PM 51.8 °F 51.8 °F 100% 29.58 in 6.0 mi WSW 5.8 mph - N/A   Overcast
9:20 PM 51.8 °F 51.8 °F 100% 29.58 in 5.0 mi SW 8.1 mph - N/A   Overcast
9:44 PM 51.8 °F 51.8 °F 100% 29.58 in 2.5 mi WSW 9.2 mph - N/A   Overcast
9:57 PM 51.8 °F 51.8 °F 100% 29.58 in 1.5 mi WSW 9.2 mph - N/A   Overcast
10:00 PM 51.8 °F 51.8 °F 100% 29.58 in 1.2 mi WSW 6.9 mph - N/A   Overcast
10:05 PM 51.8 °F 51.8 °F 100% 29.58 in 0.8 mi SW 6.9 mph - N/A   Overcast
10:15 PM 51.8 °F 51.8 °F 100% 29.58 in 0.6 mi SW 5.8 mph - N/A   Mist
10:30 PM 51.8 °F 51.8 °F 100% 29.58 in 1.0 mi WSW 5.8 mph - N/A   Mist
10:31 PM 51.8 °F 51.8 °F 100% 29.58 in 1.0 mi WSW 6.9 mph - N/A   Mist
10:42 PM 51.8 °F 51.8 °F 100% 29.58 in 0.8 mi WSW 6.9 mph - N/A   Mist
10:48 PM 51.8 °F 51.8 °F 100% 29.58 in 0.8 mi WSW 5.8 mph - N/A   Mist
11:00 PM 51.8 °F 51.8 °F 100% 29.58 in 0.4 mi WSW 6.9 mph - N/A Fog Fog